Date,TemperatureHighF,TemperatureAvgF,TemperatureLowF,DewpointHighF,DewpointAvgF,DewpointLowF,HumidityHigh,HumidityAvg,HumidityLow,PressureMaxIn,PressureMinIn,WindSpeedMaxMPH,WindSpeedAvgMPH,GustSpeedMaxMPH,PrecipitationSumIn
2013-9-1,82.0,70.1,60.0,57.0,53.7,49.0,86,59,35,29.40,29.30,3,1,7,0.00
2013-9-2,83.0,71.6,60.0,54.0,50.9,48.0,72,50,32,29.43,29.37,3,1,6,0.00
2013-9-3,69.0,64.7,61.0,63.0,58.4,52.0,87,80,65,29.52,29.42,1,0,3,0.19
2013-9-4,70.0,66.4,61.0,57.0,56.3,55.0,80,70,64,29.54,29.52,0,0,1,0.00
2013-9-5,71.0,64.4,60.0,62.0,58.1,56.0,91,81,65,29.53,29.43,2,1,6,0.53
2013-9-6,73.0,64.4,61.0,63.0,59.0,56.0,94,84,59,29.62,29.45,3,1,7,1.41
2013-9-7,74.0,64.6,61.0,60.0,55.4,-99.9,89,76,53,29.62,29.52,2,0,5,0.03
2013-9-8,78.0,64.8,58.0,61.0,56.7,54.0,94,77,47,29.61,29.52,2,0,5,0.00
2013-9-9,78.0,66.7,59.0,59.0,56.5,55.0,90,72,48,29.57,29.47,2,1,5,0.00
2013-9-10,79.0,67.3,58.0,60.0,57.1,54.0,91,72,47,29.49,29.38,3,1,5,0.00
2013-9-11,90.0,73.6,58.0,63.0,57.3,54.0,91,62,31,29.45,29.37,3,1,5,0.00
2013-9-12,79.0,69.1,61.0,60.0,57.0,55.0,88,67,44,29.51,29.40,3,1,5,0.00
2013-9-13,68.0,63.9,61.0,60.0,58.2,56.0,92,82,72,29.48,29.38,2,1,4,0.00
2013-9-14,70.0,64.0,60.0,59.0,56.1,-99.9,88,78,67,29.39,29.24,1,0,4,0.00
2013-9-15,68.0,62.8,59.0,61.0,59.1,56.0,95,88,75,29.32,29.22,2,1,5,0.23
2013-9-16,71.0,63.0,59.0,60.0,56.1,50.0,93,79,59,29.43,29.31,2,1,6,0.14
2013-9-17,59.0,59.0,59.0,50.0,50.0,50.0,73,73,73,29.42,29.42,1,1,3,0.00
2013-9-19,77.0,62.5,48.0,51.0,46.5,42.0,88,59,35,29.52,29.26,2,1,5,0.00
2013-9-20,75.0,63.3,55.0,53.0,46.9,42.0,81,57,32,29.26,29.10,5,2,9,0.02
2013-9-21,71.0,61.9,57.0,55.0,49.0,-99.9,88,66,42,29.23,29.15,4,1,7,0.02
2013-9-22,63.0,57.6,55.0,54.0,51.0,46.0,88,79,57,29.25,29.09,4,2,9,0.37
2013-9-23,62.0,56.6,52.0,53.0,50.6,48.0,89,80,64,29.46,29.24,4,2,8,0.05
2013-9-24,64.0,55.1,50.0,50.0,45.7,39.0,89,72,41,29.46,29.34,4,2,7,0.03
2013-9-25,60.0,53.0,49.0,50.0,46.6,42.0,88,79,56,29.53,29.35,3,0,4,0.06
2013-9-26,63.0,52.1,44.0,48.0,43.5,41.0,90,74,49,29.63,29.52,3,1,5,0.03
2013-9-27,57.0,54.1,51.0,51.0,46.9,43.0,84,76,68,29.62,29.36,4,2,8,0.08
2013-9-28,61.0,55.7,52.0,58.0,51.5,-99.9,94,88,82,29.36,28.86,6,3,14,1.83
2013-9-29,55.0,53.8,51.0,51.0,48.3,46.0,91,82,72,29.07,28.69,6,4,13,0.74
2013-9-30,56.0,51.5,48.0,50.0,47.1,43.0,92,85,78,29.39,28.94,5,3,11,0.97